When you browse on this site, cookies collect data to enhance your experience and personalize the content and advertising you see.
Visit our Privacy Policy to learn more. By continuing to use the site, you agree to this use of cookies and data.
  • In Norway
  • List of Countries
  • For 7 days
  • Water Temperature
  • Satellite Maps
  • Weather Map
  • Weather Widgets
  • user-avatar
    Login

    Hourly Weather Fier

    Today, 23 January, Wednesday

    Time Temperature Precipitation Wind Pressure Humidity
    00:00 +8°C° 0.6 mm 4 mps 752 mmHg 87%
    01:00 +8°C° 0.6 mm 3 mps 752 mmHg 87%
    02:00 +9°C° 0.9 mm 3 mps 752 mmHg 87%
    03:00 +9°C° 0.9 mm 3 mps 751 mmHg 86%
    04:00 +9°C° 0.9 mm 3 mps 751 mmHg 86%
    05:00 +9°C° 0.5 mm 3 mps 751 mmHg 85%
    06:00 +9°C° 0.5 mm 3 mps 750 mmHg 85%
    07:00 +9°C° 0.5 mm 3 mps 750 mmHg 85%
    08:00 +9°C° 0.4 mm 3 mps 750 mmHg 83%
    09:00 +9°C° 0.4 mm 3 mps 750 mmHg 81%
    10:00 +10°C° 0.4 mm 3 mps 750 mmHg 80%
    11:00 +10°C° 0.5 mm 3 mps 749 mmHg 79%
    12:00 +10°C° 0.5 mm 3 mps 748 mmHg 78%
    13:00 +10°C° 0.5 mm 3 mps 748 mmHg 78%
    14:00 +10°C° 0.3 mm 2 mps 747 mmHg 80%
    15:00 +11°C° 0.3 mm 1 mps 746 mmHg 82%
    16:00 +10°C° 0.3 mm 1 mps 746 mmHg 85%
    17:00 +10°C° 0.6 mm 1 mps 745 mmHg 87%
    18:00 +9°C° 0.6 mm 1 mps 745 mmHg 89%
    19:00 +9°C° 0.6 mm 1 mps 745 mmHg 90%
    20:00 +9°C° 0.5 mm 1 mps 745 mmHg 91%
    21:00 +9°C° 0.5 mm 1 mps 745 mmHg 92%
    22:00 +8°C° 0.5 mm 1 mps 744 mmHg 92%
    23:00 +8°C° 0.2 mm 1 mps 744 mmHg 92%

    Tomorrow, 24 January, Thursday

    Time Temperature Precipitation Wind Pressure Humidity
    00:00 +8°C° 0.2 mm 1 mps 744 mmHg 91%
    01:00 +8°C° 0.2 mm 1 mps 743 mmHg 91%
    02:00 +8°C° 0.1 mm 1 mps 743 mmHg 90%
    03:00 +8°C° 0.1 mm 1 mps 743 mmHg 90%
    04:00 +8°C° 0.1 mm 1 mps 742 mmHg 89%
    05:00 +7°C° 0.1 mm 2 mps 743 mmHg 89%
    06:00 +7°C° 0.1 mm 2 mps 743 mmHg 88%
    07:00 +7°C° 0.1 mm 2 mps 743 mmHg 88%
    08:00 +8°C° 0.1 mm 2 mps 743 mmHg 82%
    09:00 +9°C° 0.1 mm 2 mps 743 mmHg 77%
    10:00 +10°C° 0.1 mm 2 mps 744 mmHg 71%
    11:00 +12°C° 0 mm 2 mps 743 mmHg 65%
    12:00 +12°C° 0 mm 2 mps 743 mmHg 59%
    13:00 +13°C° 0 mm 2 mps 743 mmHg 53%
    14:00 +13°C° 0 mm 2 mps 743 mmHg 55%
    15:00 +12°C° 0 mm 2 mps 743 mmHg 58%
    16:00 +12°C° 0 mm 2 mps 743 mmHg 60%
    17:00 +10°C° 0 mm 3 mps 742 mmHg 64%
    18:00 +9°C° 0 mm 3 mps 742 mmHg 67%
    19:00 +6°C° 0 mm 4 mps 742 mmHg 71%
    20:00 +6°C° 0.1 mm 4 mps 742 mmHg 71%
    21:00 +6°C° 0.1 mm 4 mps 742 mmHg 70%
    22:00 +6°C° 0.1 mm 4 mps 742 mmHg 70%
    23:00 +6°C° 0.2 mm 4 mps 742 mmHg 71%

    Day after tomorrow, 25 January, Friday

    Time Temperature Precipitation Wind Pressure Humidity
    00:00 +6°C° 0.2 mm 4 mps 742 mmHg 72%
    01:00 +6°C° 0.2 mm 4 mps 742 mmHg 73%
    02:00 +7°C° 0 mm 3 mps 742 mmHg 74%
    03:00 +7°C° 0 mm 3 mps 741 mmHg 75%
    04:00 +5°C° 0 mm 3 mps 741 mmHg 76%
    05:00 +5°C° 0 mm 3 mps 742 mmHg 76%
    06:00 +5°C° 0 mm 3 mps 742 mmHg 76%
    07:00 +6°C° 0 mm 2 mps 742 mmHg 76%
    08:00 +7°C° 0 mm 2 mps 743 mmHg 71%
    09:00 +9°C° 0 mm 2 mps 743 mmHg 66%
    10:00 +10°C° 0 mm 2 mps 743 mmHg 61%
    11:00 +12°C° 0 mm 2 mps 743 mmHg 58%
    12:00 +13°C° 0 mm 2 mps 743 mmHg 55%
    13:00 +13°C° 0 mm 3 mps 743 mmHg 51%
    14:00 +12°C° 0 mm 3 mps 743 mmHg 54%
    15:00 +12°C° 0 mm 3 mps 743 mmHg 58%
    16:00 +11°C° 0 mm 4 mps 743 mmHg 61%
    17:00 +10°C° 0 mm 4 mps 744 mmHg 65%
    18:00 +8°C° 0 mm 4 mps 744 mmHg 68%
    19:00 +6°C° 0 mm 4 mps 744 mmHg 72%
    20:00 +7°C° 0 mm 3 mps 745 mmHg 72%
    21:00 +5°C° 0 mm 3 mps 745 mmHg 73%
    22:00 +5°C° 0 mm 3 mps 746 mmHg 73%
    23:00 +5°C° 0 mm 3 mps 746 mmHg 73%

    26 January, Saturday

    Time Temperature Precipitation Wind Pressure Humidity
    00:00 +4°C° 0 mm 3 mps 746 mmHg 73%
    01:00 +5°C° 0 mm 2 mps 746 mmHg 73%
    02:00 +5°C° 0 mm 2 mps 746 mmHg 73%
    03:00 +4°C° 0 mm 2 mps 746 mmHg 73%
    04:00 +4°C° 0 mm 2 mps 746 mmHg 72%
    05:00 +4°C° 0 mm 2 mps 747 mmHg 72%
    06:00 +3°C° 0 mm 2 mps 747 mmHg 71%
    07:00 +3°C° 0 mm 2 mps 747 mmHg 71%
    08:00 +5°C° 0 mm 2 mps 748 mmHg 65%
    09:00 +6°C° 0 mm 2 mps 748 mmHg 60%
    10:00 +7°C° 0 mm 2 mps 748 mmHg 54%
    11:00 +8°C° 0 mm 2 mps 748 mmHg 52%
    12:00 +9°C° 0 mm 2 mps 748 mmHg 51%
    13:00 +9°C° 0 mm 3 mps 748 mmHg 49%
    14:00 +9°C° 0 mm 2 mps 748 mmHg 51%
    15:00 +9°C° 0 mm 2 mps 748 mmHg 54%
    16:00 +9°C° 0 mm 2 mps 748 mmHg 57%
    17:00 +8°C° 0 mm 2 mps 749 mmHg 59%
    18:00 +7°C° 0 mm 2 mps 749 mmHg 62%
    19:00 +6°C° 0 mm 2 mps 750 mmHg 64%
    20:00 +7°C° 0 mm 1 mps 750 mmHg 65%
    21:00 +6°C° 0 mm 1 mps 750 mmHg 66%
    22:00 +6°C° 0 mm 1 mps 751 mmHg 68%
    23:00 +6°C° 0 mm 1 mps 751 mmHg 69%

    27 January, Sunday

    Time Temperature Precipitation Wind Pressure Humidity
    00:00 +4°C° 0 mm 2 mps 751 mmHg 69%
    01:00 +4°C° 0 mm 2 mps 751 mmHg 70%
    02:00 +4°C° 0 mm 2 mps 751 mmHg 70%
    03:00 +4°C° 0 mm 2 mps 750 mmHg 69%
    04:00 +4°C° 0 mm 2 mps 750 mmHg 69%
    05:00 +4°C° 0 mm 2 mps 750 mmHg 68%
    06:00 +3°C° 0 mm 3 mps 750 mmHg 67%
    07:00 +2°C° 0 mm 3 mps 751 mmHg 66%
    08:00 +5°C° 0 mm 2 mps 751 mmHg 62%
    09:00 +7°C° 0 mm 2 mps 751 mmHg 57%
    10:00 +9°C° 0 mm 2 mps 751 mmHg 52%
    11:00 +9°C° 0.1 mm 2 mps 750 mmHg 53%
    12:00 +10°C° 0.1 mm 2 mps 750 mmHg 54%
    13:00 +10°C° 0.1 mm 2 mps 750 mmHg 55%
    14:00 +10°C° 0.3 mm 2 mps 750 mmHg 61%
    15:00 +9°C° 0.3 mm 2 mps 750 mmHg 67%
    16:00 +9°C° 0.3 mm 2 mps 750 mmHg 73%
    17:00 +8°C° 0 mm 2 mps 751 mmHg 75%
    18:00 +7°C° 0 mm 2 mps 751 mmHg 78%
    19:00 +5°C° 0 mm 3 mps 751 mmHg 80%
    20:00 +5°C° 0 mm 3 mps 751 mmHg 80%
    21:00 +5°C° 0 mm 4 mps 752 mmHg 80%
    22:00 +5°C° 0 mm 4 mps 752 mmHg 80%
    23:00 +4°C° 0 mm 4 mps 752 mmHg 79%

    28 January, Monday

    Time Temperature Precipitation Wind Pressure Humidity
    00:00 +3°C° 0 mm 5 mps 752 mmHg 79%
    01:00 +3°C° 0 mm 5 mps 752 mmHg 79%
    02:00 +3°C° 0 mm 5 mps 751 mmHg 77%
    03:00 +3°C° 0 mm 5 mps 751 mmHg 75%
    04:00 +3°C° 0 mm 5 mps 751 mmHg 74%
    05:00 +3°C° 0 mm 5 mps 751 mmHg 72%
    06:00 +3°C° 0 mm 5 mps 751 mmHg 71%
    07:00 +3°C° 0 mm 5 mps 751 mmHg 70%
    08:00 +5°C° 0.4 mm 5 mps 751 mmHg 69%
    09:00 +6°C° 0.4 mm 5 mps 751 mmHg 69%
    10:00 +7°C° 0.4 mm 5 mps 751 mmHg 68%
    11:00 +7°C° 0.6 mm 5 mps 751 mmHg 71%
    12:00 +7°C° 0.6 mm 4 mps 751 mmHg 73%
    13:00 +7°C° 0.6 mm 4 mps 751 mmHg 75%
    14:00 +7°C° 0.2 mm 4 mps 752 mmHg 75%
    15:00 +8°C° 0.2 mm 3 mps 752 mmHg 75%
    16:00 +8°C° 0.2 mm 3 mps 752 mmHg 74%
    17:00 +8°C° 0 mm 3 mps 753 mmHg 75%
    18:00 +7°C° 0 mm 3 mps 753 mmHg 75%
    19:00 +7°C° 0 mm 3 mps 753 mmHg 75%
    20:00 +7°C° 0 mm 3 mps 754 mmHg 75%
    21:00 +7°C° 0 mm 3 mps 754 mmHg 76%
    22:00 +5°C° 0 mm 3 mps 754 mmHg 76%
    23:00 +6°C° 0.4 mm 2 mps 753 mmHg 77%
    Show more